Hlavní strana
METAR-TAF:

METAR-TAF

Letiště :

Carmi Municipal Airport

Carmi, Illinois, Spojené státy americké

zeměpisná šířka: 38-05-22N, zeměpisná délka: 088-07-23W, výška: 118 m

Aktuální stav počasí

Zpráva byla vytvořena před 20 minutami, v 23:55 UTC
Bezvětří
Teplota 2°C
Vlhkost vzduchu 93%
Tlak 1026 hPa
Viditelnost: 2.4 km
kouřmo

METAR: KCUL 072355Z AUTO 00000KT 1 1/2SM BR VV007 02/01 A3029 RMK AO2 VIS 1/2V5

Čas: 18:15 (00:15 UTC)


TAF: chybějící

Stav a předpovědi počasí z více než 4 000 letišť (zprávy METAR a TAF).

Červené a žluté tečky na mapě představují dostupné meteorologické stanice.

Když kurzor umístíte na tečku, zobrazí se název stanice.

Pak kliknutím zobrazíte stav a předpověď počasí.

Chcete-li změnit mapu, kliknutím na zelené tlačítko se znaménkem +mapu přiblížíte, kliknutím na zelené tlačítko se znaménkem – mapu oddálíte a kliknutím na zelené šipky přejdete na sousední mapy.


METAR-TAF: